sat.trackr.live / text

‹ back to catalog

STARLINK-36322

NORAD 68522 · 2026-068Q

PAYLOAD ACTIVE UNKNOWN

§ Identity

Operator
Country
US
Launch date
2026-03-30
Launch site
AFETR
Launch vehicle
Mass (kg)
RCS (m²)

Purposes: comms

External: N2YO · Heavens-Above · Gunter

§ Orbital elements

Epoch: 2026-09-19T18:08:49.056576Z

Period
93.85 min
Inclination
53.1592°
Eccentricity
0.0001943
Mean motion
15.34386184 rev/d
Perigee alt
461.4 km
Apogee alt
464.1 km
Semi-major
6,840.9 km
B*
5.2885e-4
RAAN
303.1433°
Arg perigee
40.6854°
Mean anomaly
319.4294°
Rev number
2,672

§ Raw data

STARLINK-363221 68522U 26068Q   26262.75612334  .00017526  00000+0  52885-3 0  99952 68522  53.1592 303.1433 0001943  40.6854 319.4294 15.34386184 26723

JSON: /api/v1/satellites/68522 · /tle

For live sub-satellite position, see the globe view (requires WebGL).

§ Visibility from observer

Set your observer location to see the next 7 days of passes ≥ 10°. The values pass through the URL so the page stays shareable.

No JS? Fill the form by hand. The geolocation button needs JavaScript.